Location: Ca�n Batista
(41.4099°N, 1.7752°E)
Time: 14:38:17
(UTC+00:00)

MetOp-A - Pass Details

Date: 03 March 2021
Orbit: 819 x 821 km, 98.5° (Epoch: 22 April)

Event Time Altitude Azimuth Distance (km) Brightness Sun altitude
Exits shadow 19:26:38 13° 158° (SSE) 2,186 6.1 -19.6°
Maximum altitude 19:31:23 75° 74° (ENE) 852 4.0 -20.5°
Drops below altitude 10° 19:36:45 10° 350° (N) 2,428 6.8 -21.5°
Sets 19:39:06 0° 349° (N) 3,364 7.6 -21.9°
